| time (UTC) | temp C | wind direction | speed KPH | gust KPH | rain 1hr cm | rain 24hr cm | rain mn cm | humidity % | barometer mb |
| 20260504081530 | 8 | 29 | 22.5 | 37.0 | 0.00 | 0.00 | 0.00 | 58 | 1014.8 |
| 20260504044535 | 13 | 42 | 29.0 | 40.2 | 0.00 | 0.00 | 0.00 | 41 | 1009.9 |
| 20260504043035 | 13 | 49 | 16.1 | 24.1 | 0.00 | 0.00 | 0.00 | 41 | 1009.4 |
| 20260504041534 | 13 | 42 | 16.1 | 20.9 | 0.00 | 0.00 | 0.00 | 41 | 1009.0 |
| 20260504040037 | 13 | 44 | 14.5 | 24.1 | 0.00 | 0.00 | 0.00 | 39 | 1008.6 |
| 20260504034541 | 14 | 38 | 17.7 | 24.1 | 0.00 | 0.00 | 0.00 | 38 | 1008.1 |
| 20260504033038 | 15 | 38 | 19.3 | 30.6 | 0.00 | 0.00 | 0.00 | 38 | 1007.9 |
| 20260504031538 | 15 | 42 | 22.5 | 33.8 | 0.00 | 0.00 | 0.00 | 37 | 1007.7 |
| 20260504030036 | 16 | 53 | 24.1 | 33.8 | 0.00 | 0.00 | 0.00 | 36 | 1007.4 |
| 20260504024531 | 16 | 54 | 22.5 | 30.6 | 0.00 | 0.00 | 0.00 | 33 | 1007.1 |
| 20260504023033 | 17 | 48 | 17.7 | 27.4 | 0.00 | 0.00 | 0.00 | 30 | 1007.0 |
| 20260504021532 | 18 | 39 | 1.6 | 8.0 | 0.00 | 0.00 | 0.00 | 25 | 1006.9 |
| 20260504020032 | 20 | 345 | 3.2 | 16.1 | 0.00 | 0.00 | 0.00 | 23 | 1007.0 |
| 20260504014530 | 20 | 342 | 6.4 | 24.1 | 0.00 | 0.00 | 0.00 | 23 | 1007.1 |
| 20260504013035 | 21 | 325 | 12.9 | 22.5 | 0.00 | 0.00 | 0.00 | 22 | 1007.0 |
| 20260504011534 | 22 | 348 | 14.5 | 24.1 | 0.00 | 0.00 | 0.00 | 21 | 1007.0 |
| 20260504010030 | 22 | 329 | 16.1 | 24.1 | 0.00 | 0.00 | 0.00 | 21 | 1007.0 |
| 20260504004534 | 22 | 333 | 17.7 | 29.0 | 0.00 | 0.00 | 0.00 | 21 | 1007.2 |
| 20260504003039 | 23 | 324 | 14.5 | 32.2 | 0.00 | 0.00 | 0.00 | 21 | 1007.3 |
| 20260504001533 | 23 | 324 | 14.5 | 32.2 | 0.00 | 0.00 | 0.00 | 20 | 1007.5 |
| 20260504000053 | 23 | 334 | 14.5 | 27.4 | 0.00 | 0.00 | 0.00 | 20 | 1007.6 |
| 20260503234533 | 23 | 328 | 16.1 | 24.1 | 0.00 | 0.00 | 0.00 | 21 | 1007.6 |
| 20260503233033 | 23 | 301 | 9.7 | 30.6 | 0.00 | 0.00 | 0.00 | 20 | 1007.7 |
| 20260503231536 | 23 | 338 | 14.5 | 29.0 | 0.00 | 0.00 | 0.00 | 19 | 1007.9 |
| 20260503230032 | 23 | 310 | 16.1 | 29.0 | 0.00 | 0.00 | 0.00 | 20 | 1007.9 |
| 20260503224533 | 23 | 329 | 12.9 | 24.1 | 0.00 | 0.00 | 0.00 | 20 | 1007.9 |
| 20260503223037 | 23 | 289 | 17.7 | 30.6 | 0.00 | 0.00 | 0.00 | 20 | 1008.2 |
| 20260503221547 | 23 | 333 | 14.5 | 30.6 | 0.00 | 0.00 | 0.00 | 20 | 1008.3 |
| 20260503220037 | 23 | 323 | 19.3 | 32.2 | 0.00 | 0.00 | 0.00 | 20 | 1008.4 |
| 20260503214539 | 23 | 314 | 14.5 | 29.0 | 0.00 | 0.00 | 0.00 | 20 | 1008.7 |
| 20260503213035 | 23 | 298 | 17.7 | 27.4 | 0.00 | 0.00 | 0.00 | 21 | 1008.9 |
| 20260503211536 | 23 | 315 | 17.7 | 35.4 | 0.00 | 0.00 | 0.00 | 21 | 1009.3 |
| 20260503210033 | 23 | 322 | 12.9 | 25.7 | 0.00 | 0.00 | 0.00 | 20 | 1009.5 |
| 20260503204535 | 22 | 281 | 16.1 | 29.0 | 0.00 | 0.00 | 0.00 | 21 | 1009.6 |
| 20260503203049 | 22 | 284 | 17.7 | 29.0 | 0.00 | 0.00 | 0.00 | 21 | 1009.8 |
| 20260503201535 | 22 | 304 | 17.7 | 32.2 | 0.00 | 0.00 | 0.00 | 22 | 1010.0 |
| 20260503200033 | 22 | 311 | 11.3 | 29.0 | 0.00 | 0.00 | 0.00 | 20 | 1010.1 |
| 20260503194538 | 22 | 309 | 9.7 | 29.0 | 0.00 | 0.00 | 0.00 | 22 | 1010.3 |
| 20260503193036 | 21 | 297 | 11.3 | 27.4 | 0.00 | 0.00 | 0.00 | 21 | 1010.7 |
| 20260503191535 | 21 | 291 | 12.9 | 22.5 | 0.00 | 0.00 | 0.00 | 21 | 1010.9 |
| 20260503190039 | 21 | 288 | 6.4 | 32.2 | 0.00 | 0.00 | 0.00 | 21 | 1011.0 |
| 20260503184534 | 21 | 288 | 9.7 | 25.7 | 0.00 | 0.00 | 0.00 | 22 | 1011.0 |
| 20260503183037 | 21 | 313 | 9.7 | 22.5 | 0.00 | 0.00 | 0.00 | 23 | 1011.2 |
| 20260503181536 | 21 | 278 | 14.5 | 22.5 | 0.00 | 0.00 | 0.00 | 23 | 1011.5 |
| 20260503180035 | 21 | 304 | 6.4 | 25.7 | 0.00 | 0.00 | 0.00 | 25 | 1011.8 |
| 20260503174535 | 21 | 331 | 12.9 | 24.1 | 0.00 | 0.00 | 0.00 | 26 | 1011.8 |
| 20260503173050 | 20 | 225 | 4.8 | 17.7 | 0.00 | 0.00 | 0.00 | 29 | 1011.9 |
| 20260503171539 | 20 | 296 | 6.4 | 24.1 | 0.00 | 0.00 | 0.00 | 29 | 1012.0 |